Regional Weather Roundup
Issued by NWS

Home | Current Version | Previous Version | Text Only | Print | Product List | Glossary On
Versions: 1 2 3 4 5 6 7 8 9 10 11 12 13 14 15 16 17 18 19 20 21 22 23 24 25 26 27 28 29 30 31 32 33 34 35 36 37 38 39 40 41 42 43 44 45 46 47 48 49 50
000
ASUS42 KFFC 271303
RWRGA
WEATHER ROUNDUP FOR GEORGIA
NATIONAL WEATHER SERVICE PEACHTREE CITY GA
900 AM EDT WED AUG 27 2014

NOTE: "FAIR" INDICATES FEW OR NO CLOUDS BELOW 12,000 FEET WITH NO
SIGNIFICANT WEATHER AND/OR OBSTRUCTIONS TO VISIBILITY.

* = USE WITH CAUTION. THE STATIONS MARKED WITH AN ASTERISK MAY NOT
REPORT WEATHER SUCH AS PRECIPITATION, FOG, OR THUNDER AND ARE NOT
QUALITY CONTROLLED BY NWS.

THE REMARK "TC" DENOTES TEMPERATURE READING IN DEGREES CELSIUS.

GAZ001>058-271400-
NORTH GEORGIA

CITY           SKY/WX    TMP DP  RH WIND       PRES   REMARKS
ATLANTA        MOSUNNY   71  60  68 E9        30.13R
ATHENS         SUNNY     71  61  70 NE5       30.13R
CHAMBLEE       SUNNY     71  60  68 CALM      30.13R
PEACHTREE CITY SUNNY     68  63  84 CALM      30.13R
ROME           SUNNY     67  65  93 CALM      30.12R
GAINESVILLE    MOSUNNY   71  59  65 E8        30.16S
CARTERSVILLE   SUNNY     69  63  81 CALM      30.14R


CITY           SKY/WX    TMP DP  RH WIND       PRES   REMARKS
DALTON*        SUNNY     68  66  94 CALM      30.14R
MARIETTA       MOSUNNY   72  63  73 E3        30.13S
KENNESAW*      MOSUNNY  N/A N/A N/A CALM      30.13R
$$

GAZ059>098-102>109-271400-
CENTRAL GEORGIA

CITY           SKY/WX    TMP DP  RH WIND       PRES   REMARKS
AUGUSTA-BUSH   SUNNY     72  63  73 N7        30.08S
AUGUSTA-DANIEL SUNNY     73  61  65 N8        30.10R
COLUMBUS       SUNNY     73  61  65 E9        30.08R
MACON          SUNNY     70  64  81 NE5       30.10R
ROBINS AFB     SUNNY     70  63  78 VRB1      30.09R


CITY           SKY/WX    TMP DP  RH WIND       PRES   REMARKS
LAGRANGE*      SUNNY     73  65  76 CALM      30.11R
SYLVANIA*      SUNNY     71  66  85 NE6       30.08S
$$

GAZ099>101-110>166-271400-
SOUTH GEORGIA

CITY           SKY/WX    TMP DP  RH WIND       PRES   REMARKS
SAVANNAH       SUNNY     73  64  73 N8        30.05S
VALDOSTA       SUNNY     75  70  84 NE6       30.05R
ALMA           SUNNY     73  65  75 N5        30.06R
ST SIMONS      SUNNY     76  69  79 N8        30.02R
FT STEWART     SUNNY     72  64  76 NE7       30.04R
ALBANY         SUNNY     75  69  81 CALM      30.08R
HUNTER AFB     SUNNY     74  65  74 N5        30.02S
MOODY AFB      SUNNY     74  70  85 NE5       30.05R
BRUNSWICK      SUNNY     77  68  73 N6        30.03S


CITY           SKY/WX    TMP DP  RH WIND       PRES   REMARKS
BAINBRIDGE*    MOSUNNY   79  73  83 E5        30.06R
MOULTRIE*      SUNNY     75  72  88 CALM      30.07S
VIDALIA*         N/A     72  64  78 NE7       30.08R
WAYCROSS*      SUNNY     77  71  81 NE6       30.05S HAZE
DOUGLAS*       SUNNY     77  64  65 NE9       30.08R
$$


USA.gov is the U.S. government's official web portal to all federal, state and local government web resources and services.